Weather History for Turku, Finland

Change the Weather History Date:

Wednesday, August 22, 2012

  Actual Average Record
Temperature  
Mean Temperature 62 °F -  
Max Temperature 68 °F 60 °F 80 °F (2002)
Min Temperature 57 °F 45 °F 37 °F (1999)
Degree Days  
Heating Degree Days 2    
Growing Degree Days 12 (Base 50)    
Moisture  
Dew Point 58 °F    
Average Humidity 86    
Maximum Humidity 100    
Minimum Humidity 68    
Precipitation  
Precipitation 0.00 in 0.10 in - ()
Sea Level Pressure  
Sea Level Pressure 29.66 in    
Wind  
Wind Speed 5 mph ()    
Max Wind Speed 13 mph    
Max Gust Speed 21 mph    
Visibility 6.2 miles    
Events Rain    
Averages and records for this station are not official NWS values.
T = Trace of Precipitation, MM = Missing Value Source: Averaged Metar Reports

Daily Weather History Graph

Daily Weather History Graph

Search for Another Location

Airport:

Trip Planner

Search our weather history database for the weather conditions in past years. The results will help you decide how hot, cold, wet, or windy it might be!

Date:

Astronomy

Aug. 22, 2012 Rise Set
Actual Time 6:00 AM EEST 9:05 PM EEST
Civil Twilight 5:11 AM EEST 9:53 PM EEST
Nautical Twilight 4:02 AM EEST 11:01 PM EEST
Astronomical Twilight 2:06 AM EEST 1:15 AM EEST
Moon 1:07 PM EEST (8/22) 9:39 PM EEST (8/22)
Length of Visible Light 16h 42m
Length of Day
15h 04m
Waxing Crescent, 26% of the Moon is Illuminated
Aug 22
Waxing Crescent
Aug 24
First Quarter
Aug 31
Full
Sep 8
Last Quarter
Sep 16
New

Hourly Weather History & Observations

Time (EEST) Temp. Dew Point Humidity Pressure Visibility Wind Dir Wind Speed Gust Speed Precip Events Conditions
12:20 AM 59.0 °F 53.6 °F 82% 29.86 in 6.2 mi South 3.5 mph - N/A   Overcast
12:50 AM 59.0 °F 53.6 °F 82% 29.86 in 6.2 mi South 4.6 mph - N/A   Overcast
1:20 AM 59.0 °F 55.4 °F 88% 29.86 in 6.2 mi SSW 3.5 mph - N/A   Mostly Cloudy
1:50 AM 59.0 °F 55.4 °F 88% 29.83 in 6.2 mi South 4.6 mph - N/A   Mostly Cloudy
2:20 AM 60.8 °F 55.4 °F 82% 29.83 in 6.2 mi SSW 3.5 mph - N/A   Mostly Cloudy
2:50 AM 60.8 °F 55.4 °F 82% 29.83 in 6.2 mi SSW 4.6 mph - N/A   Mostly Cloudy
3:20 AM 60.8 °F 57.2 °F 88% 29.80 in 6.2 mi SSW 4.6 mph - N/A   Mostly Cloudy
3:50 AM 60.8 °F 57.2 °F 88% 29.80 in 6.2 mi SSW 4.6 mph - N/A   Overcast
4:20 AM 60.8 °F 57.2 °F 88% 29.77 in 6.2 mi SSW 4.6 mph - N/A   Mostly Cloudy
4:50 AM 60.8 °F 57.2 °F 88% 29.77 in 6.2 mi SSW 3.5 mph - N/A   Mostly Cloudy
5:20 AM 60.8 °F 59.0 °F 94% 29.77 in 6.2 mi SSW 3.5 mph - N/A   Overcast
5:50 AM 60.8 °F 59.0 °F 94% 29.77 in 6.2 mi SSW 4.6 mph - N/A   Mostly Cloudy
6:20 AM 60.8 °F 59.0 °F 94% 29.74 in 6.2 mi SW 3.5 mph - N/A   Mostly Cloudy
6:50 AM 60.8 °F 59.0 °F 94% 29.74 in 6.2 mi SSW 3.5 mph - N/A   Mostly Cloudy
7:20 AM 60.8 °F 59.0 °F 94% 29.74 in 6.2 mi SSW 4.6 mph - N/A   Mostly Cloudy
7:50 AM 62.6 °F 59.0 °F 88% 29.74 in 6.2 mi South 3.5 mph - N/A   Mostly Cloudy
8:20 AM 62.6 °F 60.8 °F 94% 29.74 in 6.2 mi SSW 4.6 mph - N/A   Mostly Cloudy
8:50 AM 62.6 °F 59.0 °F 88% 29.71 in 6.2 mi SW 6.9 mph - N/A   Mostly Cloudy
9:20 AM 64.4 °F 59.0 °F 83% 29.71 in 6.2 mi SW 6.9 mph - N/A   Mostly Cloudy
9:50 AM 64.4 °F 59.0 °F 83% 29.71 in 6.2 mi SW 5.8 mph - N/A   Mostly Cloudy
10:20 AM 64.4 °F 60.8 °F 88% 29.68 in 6.2 mi SW 5.8 mph - N/A   Mostly Cloudy
10:50 AM 64.4 °F 59.0 °F 83% 29.68 in 6.2 mi SW 6.9 mph - N/A   Mostly Cloudy
11:20 AM 66.2 °F 59.0 °F 78% 29.68 in 6.2 mi SW 8.1 mph - N/A   Mostly Cloudy
11:50 AM 66.2 °F 59.0 °F 78% 29.65 in 6.2 mi SW 9.2 mph - N/A   Mostly Cloudy
12:20 PM 66.2 °F 57.2 °F 73% 29.65 in 6.2 mi West 12.7 mph - N/A   Mostly Cloudy
12:50 PM 66.2 °F 59.0 °F 78% 29.65 in 6.2 mi WSW 9.2 mph 20.7 mph N/A   Mostly Cloudy
1:20 PM 66.2 °F 59.0 °F 78% 29.65 in 6.2 mi WSW 8.1 mph - N/A Rain Light Rain Showers
1:50 PM 68.0 °F 59.0 °F 73% 29.65 in 6.2 mi West 8.1 mph - N/A Rain Light Rain Showers
2:20 PM 68.0 °F 57.2 °F 68% 29.62 in 6.2 mi West 11.5 mph - N/A   Scattered Clouds
2:50 PM 66.2 °F 59.0 °F 78% 29.62 in 6.2 mi WSW 10.4 mph - N/A   Mostly Cloudy
3:20 PM 66.2 °F 59.0 °F 78% 29.62 in 6.2 mi SW 10.4 mph - N/A   Scattered Clouds
3:50 PM 66.2 °F 59.0 °F 78% 29.62 in 6.2 mi WSW 9.2 mph - N/A   Scattered Clouds
4:20 PM 64.4 °F 59.0 °F 83% 29.59 in 6.2 mi SW 8.1 mph - N/A   Mostly Cloudy
4:50 PM 64.4 °F 59.0 °F 83% 29.59 in 6.2 mi SW 8.1 mph - N/A   Mostly Cloudy
5:20 PM 62.6 °F 57.2 °F 82% 29.59 in 6.2 mi SSW 6.9 mph - N/A Rain Light Rain Showers
5:50 PM 60.8 °F 57.2 °F 88% 29.56 in 6.2 mi SW 4.6 mph - N/A Rain Light Rain Showers
6:20 PM 60.8 °F 55.4 °F 82% 29.56 in 6.2 mi SSW 4.6 mph - N/A Rain Light Rain Showers
6:50 PM 60.8 °F 55.4 °F 82% 29.53 in 6.2 mi South 4.6 mph - N/A   Mostly Cloudy
7:20 PM 60.8 °F 55.4 °F 82% 29.53 in 6.2 mi South 4.6 mph - N/A   Partly Cloudy
7:50 PM 60.8 °F 55.4 °F 82% 29.53 in 6.2 mi South 3.5 mph - N/A   Partly Cloudy
8:20 PM 60.8 °F 57.2 °F 88% 29.50 in 6.2 mi South 3.5 mph - N/A   Mostly Cloudy
8:50 PM 59.0 °F 57.2 °F 94% 29.50 in 5.6 mi SSW 4.6 mph - N/A Rain Rain
9:20 PM 59.0 °F 57.2 °F 94% 29.50 in 6.2 mi Variable 2.3 mph - N/A Rain Light Rain
9:50 PM 59.0 °F 57.2 °F 94% 29.50 in 6.2 mi ESE 4.6 mph - N/A Rain Light Rain
10:20 PM 59.0 °F 57.2 °F 94% 29.47 in 6.2 mi SE 5.8 mph - N/A Rain Light Rain
10:50 PM 57.2 °F 57.2 °F 100% 29.47 in 6.2 mi SSE 3.5 mph - N/A Rain Light Rain
11:20 PM 57.2 °F 57.2 °F 100% 29.47 in 6.2 mi South 3.5 mph - N/A Rain Rain
11:50 PM 57.2 °F 57.2 °F 100% 29.44 in 6.2 mi South 4.6 mph - N/A Rain Light Rain